Weather Roundup
Issued by NWS

Home | Current Version | Previous Version | Graphics & Text | Print | Product List | Glossary Off
Versions: 1 2 3 4 5 6 7 8 9 10 11 12 13 14 15 16 17 18 19 20 21 22 23 24 25 26 27 28 29 30 31 32 33 34 35 36 37 38 39 40 41 42 43 44 45 46 47 48 49 50

000
NZUS93 KARX 260959
HRRWXR

CURRENT HOURLY OBSERVATIONS ACROSS
MUCH OF THE UPPER MISSISSIPPI VALLEY
NATIONAL WEATHER SERVICE LA CROSSE WI
500 AM CDT SUN APR 26 2015


...SOUTHEAST MINNESOTA...


CITY           SKY/WX    TMP DP  RH WIND       PRES   REMARKS
ROCHESTER      CLEAR     35  23  61 SE9       30.00R WCI  28
ROCHESTER/MAYO FAIR      38  24  57 SE3       30.01R
WINONA         CLEAR     34  32  93 CALM      30.03R
AUSTIN         CLEAR     36  28  75 CALM      30.00R
ALBERT LEA     CLEAR     34  34 100 CALM      29.99S
DODGE CENTER   CLEAR     36  28  75 CALM      30.00R
PRESTON        CLEAR     37  21  52 CALM      30.01R
OWATONNA       CLEAR     36  27  69 CALM      30.01R
FARIBAULT      CLEAR     36  27  69 N6        30.01R WCI  31
$$

...ELSEWHERE IN MINNESOTA...


CITY           SKY/WX    TMP DP  RH WIND       PRES   REMARKS
MINNEAPOLIS    CLEAR     37  21  52 N6        30.03R WCI  32
INTNL FALLS    CLEAR     25  20  81 CALM      30.11R
DULUTH         CLEAR     32  13  45 E6        30.07R WCI  26
RED WING       CLEAR     36  21  55 CALM      30.02R
REDWOOD FALLS  CLEAR     37  26  64 NE5       30.02R WCI  33
MANKATO        CLEAR     37  25  60 NE7       30.00S WCI  32
WORTHINGTON    CLEAR     34  30  86 N3        30.01R
FAIRMONT       CLEAR     36  28  75 N6        29.99R WCI  31
$$

...SOUTHWEST WISCONSIN...


CITY           SKY/WX    TMP DP  RH WIND       PRES   REMARKS
LA CROSSE      CLEAR     33  25  72 CALM      30.01S
PRAIRIE DU CHI CLEAR     30  27  89 CALM      29.99S
BOSCOBEL       CLEAR     27  22  81 CALM      30.00R
LONE ROCK      NOT AVBL
PLATTEVILLE    CLEAR     32  23  68 N8        29.96R WCI  25
FORT MC COY    CLEAR     24  20  84 CALM      30.02S
VIROQUA        FAIR      34  19  55 NE9       29.98S WCI  27
WIS DELLS      FAIR      32  22  66 NE7       29.99S WCI  26
$$

...ELSEWHERE IN WISCONSIN...


CITY           SKY/WX    TMP DP  RH WIND       PRES   REMARKS
MILWAUKEE      PTCLDY    37  31  78 N10       29.97R WCI  30
MADISON        CLEAR     33  24  69 N5        29.98R WCI  29
GREEN BAY      CLEAR     32  21  64 N6        30.02R WCI  26
EAU CLAIRE     NOT AVBL
BLACK RVR FLS  FAIR      22  20  93 CALM      30.01S
MEDFORD        CLEAR     31  22  71 NE5       30.03R WCI  26
WAUSAU         CLEAR     32  21  64 CALM      30.02R
WIS RAPIDS     CLEAR     34  19  54 NE6       30.03R WCI  29
MARSHFIELD     CLEAR     34  21  59 NE7       30.02R WCI  28
RICE LAKE      CLEAR     30  22  71 N6        30.06R WCI  24
$$

...NORTHEAST IOWA...


CITY           SKY/WX    TMP DP  RH WIND       PRES   REMARKS
DECORAH        CLEAR     37  18  44 CALM      29.99R
MASON CITY     CLEAR     31  29  92 N5        30.00S FOG     WCI  26
CHARLES CITY   CLEAR     37  28  70 NE9       30.00R WCI  31
OELWEIN        CLEAR     36  27  69 NE9       29.99R WCI  29
$$

...ELSEWHERE IN IOWA...


CITY           SKY/WX    TMP DP  RH WIND       PRES   REMARKS
DES MOINES     MOCLDY    46  37  71 NE6       29.96R
IOWA CITY      CLEAR     40  32  73 NE9       29.96R WCI  34
FORT DODGE     PTCLDY    37  34  87 N5        29.99S WCI  34
$$

...NORTHERN ILLINOIS...


CITY           SKY/WX    TMP DP  RH WIND       PRES   REMARKS
CHICAGO-OHARE  CLEAR     35  29  78 N7        29.91R WCI  29
CHICAGO-MIDWAY PTCLDY    41  30  65 NE8       29.91R
MOLINE         CLEAR     36  30  79 CALM      29.93S
ROCKFORD       CLEAR     33  21  61 N7        29.96R WCI  27
PEORIA         CLEAR     41  29  62 NE6       29.90R
$$

NOTE: "FAIR" INDICATES FEW OR NO CLOUDS BELOW 12,000 FEET WITH NO
SIGNIFICANT WEATHER AND/OR OBSTRUCTIONS TO VISIBILITY. WIND
SPEEDS ARE IN MILES-PER-HOUR.



USA.gov is the U.S. government's official web portal to all federal, state and local government web resources and services.